1514710800.79,58725,6.5,72688.8,-4.81,-6.09,-5.89,0,*5B
1514710802.03,58726,6.5,72696.5,-4.83,-5.81,-5.77,0,*58
1514710803.31,58727,6.5,72702.8,-4.81,-5.85,-5.65,0,*5C
1514710804.58,58728,6.5,72700.3,-4.81,-5.85,-5.65,0,*53
1514710805.83,58729,6.5,72728.0,-4.81,-6.01,-5.85,0,*53
1514710807.03,58730,6.5,72736.5,-4.79,-6.13,-6.01,0,*50
1514710808.28,58731,6.5,72734.0,-4.81,-6.01,-5.85,0,*5A
1514710809.51,58732,6.5,72708.5,-4.79,-6.23,-6.23,0,*51
1514710810.73,58733,6.5,72688.0,-4.81,-6.01,-5.97,0,*5B
1514710811.95,58734,6.5,72690.0,-4.81,-6.01,-5.97,0,*5C
1514710813.2,58735,6.5,72698.3,-4.81,-6.35,-6.27,0,*52
1514710814.42,58736,6.5,72702.3,-4.81,-6.39,-6.35,0,*5E
1514710815.64,58737,6.5,72700.0,-4.81,-6.55,-6.51,0,*57
1514710816.86,58738,6.5,72692.3,-4.81,-6.47,-6.39,0,*55
1514710818.05,58739,6.5,72696.5,-4.83,-6.43,-6.39,0,*52
1514710819.3,58740,6.5,72698.5,-4.83,-6.27,-6.19,0,*5C
1514710820.55,58741,6.5,72692.3,-4.83,-5.93,-5.93,0,*50
1514710821.77,58742,6.5,72696.3,-4.83,-6.05,-5.81,0,*5C
1514710823.02,58743,6.5,72702.8,-4.83,-5.89,-5.77,0,*53
1514710824.29,58744,6.5,72704.5,-4.85,-5.93,-5.81,0,*50
1514710825.54,58745,6.5,72706.5,-4.83,-5.93,-5.77,0,*5E
1514710826.76,58746,6.5,72718.8,-4.83,-6.05,-5.89,0,*50
1514710827.98,58747,6.44,72712.5,-4.83,-6.19,-6.13,0,*5C
1514710829.22,58748,6.5,72702.8,-4.81,-6.27,-6.13,0,*5C
1514710830.47,58749,6.5,72704.8,-4.85,-6.39,-6.27,0,*51
1514710831.66,58750,6.5,72724.0,-4.83,-6.05,-6.01,0,*54
1514710832.86,58751,6.5,72724.8,-4.83,-6.39,-6.31,0,*59
1514710834.05,58752,6.5,72724.8,-4.83,-6.39,-6.39,0,*52
1514710835.25,58753,6.5,72722.0,-4.83,-6.51,-6.43,0,*50
1514710836.45,58754,6.5,72708.3,-4.83,-6.51,-6.43,0,*57
1514710837.64,58755,6.5,72696.3,-4.83,-6.69,-6.55,0,*5A
1514710838.84,58756,6.5,72692.0,-4.83,-6.69,-6.55,0,*59
1514710840.06,58757,6.5,72686.5,-4.85,-6.43,-6.39,0,*5C
1514710841.33,58758,6.5,72702.5,-4.85,-6.27,-6.19,0,*53
1514710842.52,58759,6.5,72698.3,-4.83,-6.39,-6.39,0,*59
1514710843.75,58760,6.5,72706.8,-4.85,-6.51,-6.39,0,*5B
1514710844.94,58761,6.5,72700.8,-4.83,-6.43,-6.39,0,*5F
1514710846.17,58762,6.5,72694.3,-4.85,-6.51,-6.43,0,*54
1514710847.4,58763,6.5,72694.8,-4.85,-6.43,-6.43,0,*56
1514710848.62,58764,6.5,72690.3,-4.85,-6.43,-6.31,0,*54
1514710849.87,58765,6.5,72692.0,-4.85,-6.39,-6.27,0,*5F
1514710851.09,58766,6.5,72688.8,-4.85,-6.39,-6.31,0,*5B
1514710852.31,58767,6.5,72686.5,-4.85,-6.43,-6.39,0,*5F
1514710853.56,58768,6.5,72688.8,-4.85,-6.31,-6.27,0,*5A
1514710854.81,58769,6.5,72690.5,-4.85,-6.01,-5.93,0,*54
1514710856.08,58770,6.5,72688.0,-4.85,-5.89,-5.77,0,*55
1514710857.36,58771,6.5,72694.3,-4.85,-5.81,-5.69,0,*53
1514710858.63,58772,6.5,72694.3,-4.85,-5.81,-5.69,0,*50
1514710859.91,58773,6.5,72692.5,-4.85,-5.81,-5.69,0,*51
1514710861.19,58774,6.5,72694.8,-4.85,-5.69,-5.61,0,*58
1514710862.44,58775,6.5,72692.3,-4.83,-5.69,-5.65,0,*5B
1514710863.69,58776,6.5,72692.8,-4.83,-5.69,-5.65,0,*58
1514710864.94,58777,6.5,72696.0,-4.83,-5.69,-5.61,0,*5D
1514710866.19,58778,6.5,72700.0,-4.83,-5.69,-5.65,0,*56
1514710867.43,58779,6.5,72710.0,-4.83,-5.77,-5.65,0,*58
1514710868.71,58780,6.5,72714.0,-4.81,-5.89,-5.85,0,*53
1514710869.9,58781,6.5,72706.3,-4.79,-6.09,-5.97,0,*5D
1514710871.14,58782,6.5,72690.5,-4.81,-6.23,-6.09,0,*55
1514710872.37,58783,6.5,72690.5,-4.81,-6.35,-6.35,0,*5C
1514710873.61,58784,6.5,72694.0,-4.81,-6.27,-6.13,0,*5C
1514710874.85,58785,6.5,72680.3,-4.81,-6.27,-6.13,0,*5D
1514710876.1,58786,6.5,72686.8,-4.81,-6.35,-6.27,0,*5A
1514710877.29,58787,6.5,72686.8,-4.83,-6.05,-6.05,0,*5A
1514710878.51,58788,6.5,72686.8,-4.83,-6.01,-5.89,0,*56
1514710879.76,58789,6.5,72698.8,-4.83,-5.93,-5.81,0,*57
1514710880.98,58790,6.5,72696.0,-4.83,-6.27,-6.13,0,*5B
1514710882.2,58791,6.5,72696.8,-4.83,-6.31,-6.19,0,*57
1514710883.42,58792,6.5,72694.0,-4.81,-6.13,-6.09,0,*57
1514710884.67,58793,6.5,72698.3,-4.81,-6.35,-6.23,0,*5A
1514710885.89,58794,6.5,72718.5,-4.83,-6.31,-6.27,0,*5F
1514710887.11,58795,6.5,72724.8,-4.83,-6.31,-6.27,0,*5E
1514710888.3,58796,6.5,72726.3,-4.83,-6.31,-6.05,0,*5D
1514710889.52,58797,6.5,72720.8,-4.83,-6.27,-6.13,0,*5C
1514710890.74,58798,6.5,72720.5,-4.83,-6.19,-6.05,0,*59
1514710891.93,58799,6.5,72720.8,-4.83,-6.05,-6.05,0,*55
1514710893.12,58800,6.5,72684.5,-4.83,-6.13,-6.05,0,*5D
1514710894.35,58801,6.5,72702.5,-4.85,-6.39,-6.31,0,*55
1514710895.59,58802,6.5,72720.3,-4.83,-6.27,-6.19,0,*55
1514710896.84,58803,6.5,72726.8,-4.83,-6.19,-6.19,0,*59
1514710898.06,58804,6.5,72720.3,-4.83,-6.19,-6.13,0,*54
1514710899.34,58805,6.5,72730.0,-4.81,-5.77,-5.65,0,*5E
1514710900.59,58806,6.5,72740.3,-4.83,-5.69,-5.61,0,*54
1514710901.79,58807,6.5,72730.8,-4.83,-6.51,-6.43,0,*5E
1514710902.99,58808,6.5,72712.0,-4.83,-6.51,-6.43,0,*51
1514710904.19,58809,6.5,72692.3,-4.83,-6.81,-6.59,0,*56
1514710905.42,58810,6.5,72676.0,-4.85,-6.51,-6.43,0,*5E
1514710906.65,58811,6.5,72672.5,-4.85,-6.55,-6.51,0,*58
1514710907.9,58812,6.5,72670.0,-4.85,-6.31,-6.19,0,*55
1514710909.15,58813,6.5,72674.3,-4.85,-6.31,-6.19,0,*54
1514710910.37,58814,6.5,72668.3,-4.83,-6.39,-6.27,0,*50
1514710911.57,58815,6.5,72674.5,-4.83,-6.39,-6.31,0,*56
1514710912.81,58816,6.5,72664.8,-4.85,-6.39,-6.19,0,*59
1514710914.02,58817,6.5,72652.8,-4.83,-6.51,-6.43,0,*5F
1514710915.24,58818,6.5,72660.3,-4.85,-6.43,-6.39,0,*58
1514710916.48,58819,6.5,72650.3,-4.85,-6.43,-6.27,0,*56
1514710917.73,58820,6.5,72686.8,-4.83,-6.27,-6.19,0,*55
1514710919.0,58821,6.5,72698.8,-4.85,-6.27,-6.19,0,*52
1514710920.25,58822,6.5,72698.5,-4.85,-6.05,-5.89,0,*5B
1514710921.52,58823,6.5,72700.3,-4.85,-5.89,-5.81,0,*55
1514710922.8,58824,6.5,72710.3,-4.85,-5.93,-5.69,0,*5F
1514710924.08,58825,6.5,72720.3,-4.85,-5.93,-5.81,0,*58
1514710925.33,58826,6.5,72726.0,-4.83,-5.81,-5.77,0,*57
1514710926.57,58827,6.5,72724.8,-4.83,-5.77,-5.77,0,*5F
1514710927.8,58828,6.5,72718.3,-4.83,-5.69,-5.51,0,*5B
1514710929.0,58829,6.5,72728.3,-4.83,-5.51,-5.47,0,*56
1514710930.22,58830,6.5,72728.0,-4.83,-5.61,-5.51,0,*5A
1514710931.43,58831,6.5,72738.8,-4.79,-5.61,-5.43,0,*5D
1514710932.66,58832,6.5,72746.0,-4.81,-5.55,-5.43,0,*5E
1514710933.88,58833,6.5,72742.0,-4.79,-5.43,-5.31,0,*5A
1514710935.06,58834,6.5,72748.3,-4.79,-5.43,-5.35,0,*59
1514710936.29,58835,6.5,72736.8,-4.79,-5.61,-5.55,0,*5E
1514710937.52,58836,6.5,72728.0,-4.79,-5.73,-5.73,0,*5A
1514710938.77,58837,6.5,72720.3,-4.79,-5.65,-5.61,0,*5F
1514710940.02,58838,6.5,72720.3,-4.77,-5.69,-5.55,0,*55
1514710941.3,58839,6.5,72716.8,-4.77,-5.93,-5.81,0,*58
1514710942.54,58840,6.5,72708.8,-4.79,-5.89,-5.77,0,*5A
1514710943.77,58841,6.5,72722.0,-4.77,-6.09,-6.05,0,*58
1514710945.01,58842,6.5,72726.8,-4.77,-6.05,-5.93,0,*5B
1514710946.26,58843,6.5,72728.0,-4.79,-5.85,-5.65,0,*56
1514710947.5,58844,6.5,72738.5,-4.79,-5.73,-5.65,0,*58
1514710948.69,58845,6.5,72738.8,-4.79,-6.01,-5.97,0,*52
1514710949.93,58846,6.5,72736.8,-4.79,-5.89,-5.77,0,*5C
1514710951.17,58847,6.5,72738.3,-4.79,-5.89,-5.77,0,*5D
1514710952.4,58848,6.5,72732.8,-4.79,-5.97,-5.85,0,*50
1514710953.68,58849,6.5,72740.0,-4.77,-5.93,-5.85,0,*5B
1514710954.87,58850,6.5,72738.3,-4.79,-6.09,-5.97,0,*5E
1514710956.12,58851,6.5,72742.0,-4.77,-6.19,-6.05,0,*58
1514710957.39,58852,6.5,72736.3,-4.77,-6.23,-6.19,0,*5F
1514710958.67,58853,6.5,72742.0,-4.77,-6.19,-6.19,0,*57
1514710959.94,58854,6.5,72726.8,-4.77,-6.23,-6.19,0,*59
1514710961.22,58855,6.5,72734.3,-4.77,-6.19,-6.19,0,*51
1514710962.46,58856,6.5,72738.3,-4.77,-6.23,-6.05,0,*56
1514710963.69,58857,6.5,72730.8,-4.77,-6.35,-6.31,0,*57
1514710964.89,58858,6.5,72722.5,-4.79,-6.09,-5.97,0,*56
1514710966.12,58859,6.5,72718.3,-4.79,-6.27,-6.27,0,*53
1514710967.35,58860,6.5,72716.5,-4.79,-6.35,-6.27,0,*5A
1514710968.57,58861,6.5,72696.8,-4.79,-6.35,-6.27,0,*5B
1514710969.79,58862,6.5,72704.0,-4.79,-6.35,-6.27,0,*58
1514710971.02,58863,6.5,72700.5,-4.79,-6.27,-6.23,0,*5E
1514710972.27,58864,6.5,72696.5,-4.77,-6.19,-6.05,0,*5E
1514710973.46,58865,6.5,72690.5,-4.79,-6.13,-6.01,0,*5F
1514710974.68,58866,6.5,72696.0,-4.81,-6.09,-6.01,0,*50
1514710975.88,58867,6.5,72696.3,-4.79,-6.09,-6.01,0,*56
1514710977.12,58868,6.5,72700.3,-4.81,-6.35,-6.23,0,*51
1514710978.32,58869,6.5,72688.3,-4.83,-6.51,-6.39,0,*5B
1514710979.54,58870,6.5,72690.0,-4.79,-6.35,-6.27,0,*5B
1514710980.77,58871,6.5,72684.0,-4.81,-6.35,-6.35,0,*5E
1514710982.01,58872,6.5,72692.8,-4.81,-6.39,-6.27,0,*52
1514710983.25,58873,6.5,72694.8,-4.81,-6.23,-6.09,0,*54
1514710984.47,58874,6.5,72700.5,-4.81,-6.09,-6.09,0,*5B
1514710985.69,58875,6.5,72712.3,-4.81,-6.09,-5.97,0,*5E
1514710986.94,58876,6.5,72716.5,-4.81,-5.97,-5.89,0,*56
1514710988.16,58877,6.5,72706.5,-4.81,-6.09,-6.01,0,*50
1514710989.38,58878,6.5,72700.3,-4.81,-6.13,-6.01,0,*54
1514710990.6,58879,6.5,72700.0,-4.81,-6.13,-6.01,0,*55
1514710991.85,58880,6.5,72698.3,-4.81,-6.35,-6.23,0,*57
1514710993.07,58881,6.5,72684.3,-4.81,-6.39,-6.35,0,*5D
1514710994.33,58882,6.5,72678.0,-4.81,-6.27,-6.23,0,*56
1514710995.55,58883,6.5,72676.8,-4.81,-6.13,-6.09,0,*58
1514710996.79,58884,6.5,72688.0,-4.83,-6.27,-6.19,0,*5B
1514710997.99,58885,6.5,72694.8,-4.83,-6.59,-6.51,0,*5F
1514710999.19,58886,6.5,72696.8,-4.83,-6.43,-6.43,0,*54
1514711000.44,58887,6.5,72698.3,-4.85,-6.43,-6.27,0,*51
1514711001.68,58888,6.5,72694.8,-4.83,-6.27,-6.19,0,*57
1514711002.9,58889,6.5,72694.8,-4.83,-6.05,-5.93,0,*57
1514711004.15,58890,6.5,72692.0,-4.83,-5.69,-5.69,0,*53
1514711005.38,58891,6.5,72696.3,-4.81,-5.55,-5.43,0,*57
1514711006.59,58892,6.5,72704.3,-4.79,-5.61,-5.43,0,*54
1514711007.81,58893,6.5,72712.8,-4.81,-5.55,-5.43,0,*55
1514711009.04,58894,6.5,72694.8,-4.81,-5.47,-5.47,0,*55
1514711010.23,58895,6.5,72694.0,-4.79,-5.55,-5.43,0,*54
1514711011.45,58896,6.5,72698.0,-4.79,-5.61,-5.35,0,*51
1514711012.7,58897,6.5,72708.0,-4.79,-5.31,-5.31,0,*51
1514711013.92,58898,6.5,72708.5,-4.79,-5.47,-5.31,0,*5F
1514711015.18,58899,6.5,72710.3,-4.77,-5.61,-5.55,0,*56
1514711016.45,58900,6.5,72698.5,-4.77,-5.61,-5.61,0,*50
1514711017.7,58901,6.5,72698.5,-4.77,-5.61,-5.55,0,*56
1514711018.93,58902,6.5,72696.8,-4.77,-5.51,-5.39,0,*5C
1514711020.18,58903,6.5,72696.3,-4.73,-5.39,-5.27,0,*58
1514711021.4,58904,6.5,72700.8,-4.73,-5.51,-5.39,0,*5E
1514711022.62,58905,6.5,72708.8,-4.73,-5.51,-5.47,0,*56
1514711023.84,58906,6.5,72716.3,-4.73,-5.51,-5.47,0,*55
1514711025.04,58907,6.5,72730.0,-4.71,-5.51,-5.47,0,*56
1514711026.3,58908,6.5,72726.3,-4.69,-5.73,-5.61,0,*54
1514711027.55,58909,6.5,72712.3,-4.71,-5.93,-5.81,0,*5C
1514711028.76,58910,6.5,72714.0,-4.71,-6.01,-5.81,0,*5C
1514711029.98,58911,6.5,72710.0,-4.71,-5.77,-5.55,0,*56
1514711031.23,58912,6.5,72704.3,-4.71,-5.89,-5.81,0,*5D
1514711032.41,58913,6.5,72702.8,-4.71,-6.01,-6.01,0,*54
1514711033.66,58914,6.5,72694.5,-4.71,-5.93,-5.89,0,*58
1514711034.9,58915,6.5,72678.8,-4.71,-5.81,-5.69,0,*54
1514711036.16,58916,6.5,72676.5,-4.69,-5.73,-5.65,0,*5F
1514711037.38,58917,6.5,72678.8,-4.69,-5.51,-5.43,0,*5A
1514711038.58,58918,6.5,72676.0,-4.71,-5.55,-5.51,0,*5B
1514711039.8,58919,6.5,72680.5,-4.69,-5.51,-5.43,0,*54
1514711041.07,58920,6.5,72690.3,-4.69,-5.61,-5.61,0,*5D
1514711042.31,58921,6.5,72684.3,-4.71,-5.77,-5.65,0,*56
1514711043.53,58922,6.5,72682.0,-4.69,-5.51,-5.47,0,*58
1514711044.74,58923,6.5,72680.8,-4.69,-5.47,-5.35,0,*5B
1514711045.99,58924,6.5,72698.5,-4.69,-5.35,-5.23,0,*5E
1514711047.24,58925,6.5,72706.3,-4.69,-5.35,-5.31,0,*5C
1514711048.48,58926,6.5,72712.8,-4.69,-5.35,-5.31,0,*5F
1514711049.7,58927,6.5,72720.8,-4.67,-5.47,-5.47,0,*54
1514711050.93,58928,6.5,72732.5,-4.67,-5.51,-5.43,0,*58
1514711052.15,58929,6.5,72744.3,-4.65,-5.43,-5.31,0,*5D
1514711053.34,58930,6.5,72740.3,-4.65,-5.47,-5.43,0,*54
1514711054.54,58931,6.5,72734.0,-4.65,-5.55,-5.47,0,*52
1514711055.79,58932,6.5,72720.3,-4.65,-5.81,-5.69,0,*54
1514711056.98,58933,6.5,72720.5,-4.65,-6.09,-5.97,0,*57
1514711058.18,58934,6.5,72714.3,-4.65,-6.09,-6.05,0,*58
1514711059.37,58935,6.5,72712.8,-4.65,-6.09,-6.05,0,*59
1514711060.62,58936,6.5,72716.3,-4.67,-5.97,-5.85,0,*57
1514711061.9,58937,6.5,72714.8,-4.67,-5.85,-5.73,0,*5C
1514711063.14,58938,6.5,72708.0,-4.65,-5.81,-5.69,0,*5E
1514711064.36,58939,6.5,72698.0,-4.65,-5.97,-5.73,0,*53
1514711065.6,58940,6.5,72698.3,-4.67,-6.23,-6.13,0,*56
1514711066.85,58941,6.5,72682.3,-4.67,-6.35,-6.23,0,*53
1514711068.09,58942,6.5,72684.3,-4.67,-6.35,-6.23,0,*50
1514711069.33,58943,6.5,72696.0,-4.67,-6.27,-6.01,0,*52
1514711070.59,58944,6.5,72694.5,-4.67,-6.01,-5.89,0,*52
1514711071.81,58945,6.5,72700.0,-4.65,-5.69,-5.47,0,*5E
1514711073.03,58946,6.5,72702.8,-4.67,-5.51,-5.43,0,*50
1514711074.25,58947,6.5,72702.3,-4.67,-5.47,-5.35,0,*57
1514711075.5,58948,6.5,72702.0,-4.67,-5.43,-5.31,0,*58
1514711076.72,58949,6.5,72692.0,-4.67,-5.47,-5.47,0,*5C
1514711077.92,58950,6.5,72688.8,-4.65,-5.55,-5.43,0,*51
1514711079.14,58951,6.5,72694.0,-4.65,-5.43,-5.31,0,*52
1514711080.39,58952,6.5,72700.3,-4.65,-5.27,-5.27,0,*54
1514711081.64,58953,6.5,72702.0,-4.65,-5.27,-5.15,0,*54
1514711082.86,58954,6.5,72706.8,-4.65,-5.39,-5.31,0,*5A
1514711084.05,58955,6.5,72700.0,-4.65,-5.47,-5.43,0,*57
1514711085.3,58956,6.5,72696.5,-4.63,-5.97,-5.81,0,*51
1514711086.57,58957,6.5,72696.3,-4.63,-5.81,-5.61,0,*59
1514711087.84,58958,6.5,72700.3,-4.63,-5.69,-5.61,0,*50
1514711089.09,58959,6.5,72690.3,-4.61,-5.85,-5.77,0,*56
1514711090.31,58960,6.5,72692.5,-4.61,-5.69,-5.55,0,*5E
1514711091.58,58961,6.5,72690.8,-4.63,-5.69,-5.61,0,*5A
1514711092.85,58962,6.5,72690.5,-4.63,-5.73,-5.61,0,*52
1514711094.11,58963,6.5,72694.3,-4.63,-5.85,-5.73,0,*59
1514711095.39,58964,6.5,72694.0,-4.63,-5.93,-5.85,0,*50
1514711096.63,58965,6.5,72688.3,-4.63,-5.97,-5.93,0,*52
1514711097.9,58966,6.5,72694.5,-4.63,-5.85,-5.69,0,*57
1514711099.1,58967,6.5,72692.3,-4.61,-5.55,-5.43,0,*51
1514711100.35,58968,6.5,72690.0,-4.63,-5.69,-5.55,0,*54
1514711101.61,58969,6.5,72676.8,-4.63,-5.73,-5.69,0,*51
1514711102.86,58970,6.5,72688.3,-4.61,-5.81,-5.69,0,*56
1514711104.11,58971,6.5,72682.8,-4.61,-5.93,-5.85,0,*56
1514711105.33,58972,6.5,72688.0,-4.61,-6.05,-5.93,0,*5E
1514711106.57,58973,6.5,72696.0,-4.63,-6.05,-5.85,0,*5A
1514711107.84,58974,6.5,72696.3,-4.63,-6.19,-5.93,0,*57
1514711109.08,58975,6.5,72696.8,-4.63,-5.73,-5.55,0,*53
1514711110.32,58976,6.5,72702.3,-4.63,-5.61,-5.47,0,*50
1514711111.54,58977,6.5,72714.8,-4.63,-5.55,-5.39,0,*5F
1514711112.76,58978,6.5,72714.8,-4.63,-5.55,-5.47,0,*59
1514711113.99,58979,6.5,72708.3,-4.63,-6.05,-5.93,0,*57
1514711115.24,58980,6.5,72710.5,-4.61,-5.81,-5.69,0,*59
1514711116.51,58981,6.5,72694.8,-4.63,-5.73,-5.61,0,*5F
1514711117.7,58982,6.5,72696.0,-4.61,-5.43,-5.35,0,*5C
1514711118.89,58983,6.5,72694.3,-4.61,-5.43,-5.39,0,*51
1514711120.08,58984,6.5,72688.8,-4.61,-5.43,-5.39,0,*56
1514711121.27,58985,6.5,72698.3,-4.61,-5.51,-5.43,0,*59
1514711122.52,58986,6.5,72702.5,-4.61,-5.69,-5.65,0,*55
1514711123.72,58987,6.5,72706.5,-4.61,-5.55,-5.51,0,*5C
1514711124.93,58988,6.5,72710.3,-4.59,-5.43,-5.39,0,*51
1514711126.15,58989,6.5,72710.8,-4.59,-5.51,-5.43,0,*5E
1514711127.34,58990,6.5,72708.8,-4.57,-5.39,-5.35,0,*57
1514711128.55,58991,6.5,72710.0,-4.59,-5.43,-5.39,0,*59
1514711129.76,58992,6.5,72708.8,-4.59,-5.51,-5.43,0,*54
1514711130.97,58993,6.5,72704.3,-4.59,-5.43,-5.43,0,*56
1514711132.19,58994,6.5,72688.5,-4.57,-5.43,-5.27,0,*5D
1514711133.38,58995,6.5,72698.8,-4.57,-5.39,-5.35,0,*52
1514711134.6,58996,6.5,72690.3,-4.57,-5.35,-5.31,0,*59
1514711135.79,58997,6.5,72690.3,-4.57,-5.39,-5.35,0,*50
1514711137.0,58998,6.5,72702.8,-4.59,-5.43,-5.39,0,*50
1514711138.2,58999,6.5,72708.8,-4.57,-5.47,-5.35,0,*57
1514711139.39,59000,6.5,72704.0,-4.57,-5.47,-5.39,0,*53
1514711140.61,59001,6.5,72710.0,-4.55,-5.51,-5.39,0,*57
1514711141.84,59002,6.5,72716.0,-4.55,-5.61,-5.47,0,*5E
1514711143.08,59003,6.5,72720.3,-4.55,-5.61,-5.51,0,*58
1514711144.3,59004,6.5,72726.0,-4.55,-5.39,-5.35,0,*50
1514711145.51,59005,6.5,72724.3,-4.55,-5.51,-5.35,0,*5F
1514711146.73,59006,6.5,72728.0,-4.55,-5.51,-5.39,0,*50
1514711147.97,59007,6.5,72724.3,-4.55,-5.61,-5.39,0,*52
1514711149.18,59008,6.5,72722.5,-4.55,-5.39,-5.39,0,*50
1514711150.4,59009,6.5,72720.5,-4.55,-5.47,-5.35,0,*54
1514711151.62,59010,6.5,72724.8,-4.51,-5.55,-5.43,0,*5A
1514711152.88,59011,6.5,72718.8,-4.55,-5.77,-5.73,0,*5C
1514711154.15,59012,6.5,72708.3,-4.55,-5.77,-5.61,0,*5C
1514711155.42,59013,6.5,72700.3,-4.55,-5.65,-5.61,0,*5E
1514711156.64,59014,6.5,72700.3,-4.55,-5.51,-5.47,0,*5A
1514711157.88,59015,6.5,72702.8,-4.55,-5.39,-5.31,0,*54
1514711159.15,59016,6.5,72702.5,-4.55,-5.31,-5.11,0,*5D
1514711160.42,59017,6.5,72702.8,-4.51,-5.15,-4.93,0,*55
1514711161.69,59018,6.5,72706.3,-4.51,-5.19,-5.07,0,*5A
1514711162.96,59019,6.5,72708.8,-4.51,-5.31,-5.15,0,*52
1514711164.21,59020,6.5,72714.8,-4.49,-5.31,-5.15,0,*51
1514711165.46,59021,6.5,72704.8,-4.49,-5.31,-5.19,0,*5C
1514711166.71,59022,6.5,72710.3,-4.49,-5.27,-5.19,0,*58
1514711167.95,59023,6.5,72708.8,-4.49,-5.27,-5.19,0,*59
1514711169.2,59024,6.5,72706.0,-4.49,-5.31,-5.15,0,*55
1514711170.42,59025,6.5,72712.0,-4.49,-5.69,-5.43,0,*5A
1514711171.64,59026,6.5,72712.3,-4.49,-5.69,-5.55,0,*5E
1514711172.89,59027,6.5,72720.3,-4.49,-5.85,-5.81,0,*54
1514711174.11,59028,6.5,72726.3,-4.49,-5.97,-5.93,0,*5B
1514711175.32,59029,6.5,72726.8,-4.49,-5.97,-5.81,0,*59
1514711176.6,59030,6.5,72720.8,-4.51,-5.93,-5.93,0,*5F
1514711177.84,59031,6.5,72726.8,-4.49,-6.27,-6.19,0,*5A
1514711179.08,59032,6.5,72730.0,-4.51,-6.23,-6.09,0,*55
1514711180.29,59033,6.5,72724.0,-4.51,-6.09,-6.05,0,*50
1514711181.53,59034,6.5,72706.0,-4.55,-6.31,-6.27,0,*58
1514711182.78,59035,6.56,72698.3,-4.55,-6.09,-5.89,0,*55
1514711183.99,59036,6.5,72690.0,-4.57,-6.39,-6.23,0,*54
1514711185.22,59037,6.5,72690.3,-4.55,-6.39,-6.27,0,*53
1514711186.44,59038,6.5,72672.5,-4.55,-6.31,-6.13,0,*53
1514711187.67,59039,6.5,72678.5,-4.55,-6.39,-6.27,0,*5D
1514711188.89,59040,6.5,72688.5,-4.59,-6.13,-6.09,0,*5B
1514711190.13,59041,6.5,72686.5,-4.57,-5.89,-5.85,0,*53
1514711191.38,59042,6.5,72686.5,-4.57,-5.85,-5.73,0,*55
1514711192.64,59043,6.5,72696.3,-4.59,-5.69,-5.65,0,*5F
1514711193.84,59044,6.5,72700.5,-4.57,-5.51,-5.51,0,*5A
1514711195.09,59045,6.5,72700.3,-4.57,-5.65,-5.61,0,*5F
1514711196.35,59046,6.5,72696.5,-4.59,-5.77,-5.69,0,*59
1514711197.6,59047,6.5,72702.3,-4.57,-5.85,-5.77,0,*54
1514711198.84,59048,6.5,72706.3,-4.57,-5.89,-5.73,0,*53
1514711200.07,59049,6.5,72702.0,-4.57,-5.73,-5.65,0,*50
1514711201.34,59050,6.5,72706.5,-4.55,-5.65,-5.65,0,*5D
1514711202.58,59051,6.5,72706.3,-4.55,-5.65,-5.51,0,*5B
1514711203.85,59052,6.5,72704.5,-4.55,-5.85,-5.73,0,*56
1514711205.11,59053,6.5,72708.5,-4.55,-5.65,-5.65,0,*5E
1514711206.38,59054,6.5,72706.3,-4.55,-5.65,-5.61,0,*5D
1514711207.6,59055,6.5,72696.8,-4.55,-5.47,-5.47,0,*58
1514711208.82,59056,6.5,72700.0,-4.55,-5.51,-5.39,0,*55
1514711210.05,59057,6.5,72692.0,-4.55,-5.61,-5.47,0,*5E
1514711211.3,59058,6.5,72690.8,-4.55,-5.65,-5.51,0,*52
1514711212.53,59059,6.5,72690.5,-4.55,-5.61,-5.47,0,*50
1514711213.78,59060,6.5,72690.0,-4.55,-5.39,-5.31,0,*56
1514711215.02,59061,6.5,72694.5,-4.55,-5.35,-5.31,0,*5B
1514711216.26,59062,6.5,72700.0,-4.51,-5.43,-5.31,0,*5D
1514711217.48,59063,6.5,72698.5,-4.55,-5.47,-5.39,0,*54
1514711218.69,59064,6.5,72700.3,-4.55,-5.47,-5.39,0,*53
1514711219.91,59065,6.5,72704.3,-4.55,-5.47,-5.39,0,*52
1514711221.15,59066,6.5,72706.8,-4.55,-5.65,-5.51,0,*5F
1514711222.39,59067,6.5,72708.8,-4.55,-5.61,-5.47,0,*5D
1514711223.6,59068,6.5,72712.8,-4.51,-5.35,-5.35,0,*52
1514711224.82,59069,6.5,72714.8,-4.51,-5.43,-5.35,0,*52
1514711226.04,59070,6.5,72714.0,-4.51,-5.47,-5.35,0,*5E
1514711227.25,59071,6.5,72712.0,-4.51,-5.47,-5.47,0,*5A
1514711228.48,59072,6.5,72712.8,-4.49,-5.69,-5.55,0,*5F
1514711229.73,59073,6.5,72708.8,-4.51,-5.61,-5.55,0,*5F
1514711230.97,59074,6.5,72706.3,-4.51,-5.69,-5.47,0,*53
1514711232.21,59075,6.5,72710.3,-4.51,-5.61,-5.47,0,*5A
1514711233.45,59076,6.5,72710.0,-4.51,-5.61,-5.43,0,*5D
1514711234.69,59077,6.5,72712.3,-4.51,-5.61,-5.47,0,*58
1514711235.9,59078,6.5,72716.8,-4.51,-5.35,-5.35,0,*53
1514711237.15,59079,6.5,72720.5,-4.51,-5.35,-5.27,0,*51
1514711238.35,59080,6.5,72718.5,-4.49,-5.55,-5.43,0,*5A
1514711239.57,59081,6.5,72716.5,-4.49,-5.69,-5.55,0,*53
1514711240.82,59082,6.5,72716.3,-4.49,-5.81,-5.61,0,*51
1514711242.04,59083,6.5,72708.0,-4.51,-5.55,-5.47,0,*54
1514711243.24,59084,6.5,72710.5,-4.49,-5.47,-5.35,0,*5C
1514711244.43,59085,6.5,72710.8,-4.49,-5.47,-5.43,0,*5C
1514711245.67,59086,6.5,72712.0,-4.49,-5.73,-5.69,0,*50
1514711246.92,59087,6.5,72706.5,-4.49,-5.85,-5.85,0,*5A
1514711248.19,59088,6.5,72720.3,-4.51,-5.85,-5.81,0,*58
1514711249.41,59089,6.5,72730.5,-4.51,-6.09,-6.05,0,*51
1514711250.63,59090,6.5,72736.0,-4.51,-6.09,-6.09,0,*55
1514711251.87,59091,6.5,72730.5,-4.51,-6.05,-5.93,0,*58
1514711253.11,59092,6.5,72726.8,-4.51,-5.97,-5.85,0,*54
1514711254.38,59093,6.5,72710.8,-4.51,-5.69,-5.69,0,*56
1514711255.64,59094,6.5,72710.3,-4.55,-5.73,-5.65,0,*52
1514711256.92,59095,6.5,72704.5,-4.51,-5.69,-5.61,0,*58
1514711258.14,59096,6.5,72696.3,-4.51,-5.47,-5.35,0,*56
1514711259.38,59097,6.5,72698.0,-4.51,-5.35,-5.31,0,*56
1514711260.6,59098,6.5,72708.0,-4.51,-5.35,-5.35,0,*5D
1514711261.82,59099,6.5,72712.5,-4.51,-5.55,-5.43,0,*5B
1514711263.04,59100,6.5,72716.8,-4.49,-5.69,-5.55,0,*5B
1514711264.24,59101,6.5,72722.0,-4.49,-5.55,-5.47,0,*56
1514711265.43,59102,6.5,72720.0,-4.49,-5.35,-5.35,0,*56
1514711266.62,59103,6.5,72720.5,-4.49,-5.43,-5.35,0,*56
1514711267.81,59104,6.5,72732.3,-4.49,-5.43,-5.43,0,*50
1514711269.0,59105,6.5,72730.8,-4.49,-5.47,-5.43,0,*55
1514711270.18,59106,6.5,72734.0,-4.49,-5.43,-5.35,0,*53
1514711271.37,59107,6.5,72738.5,-4.49,-5.43,-5.35,0,*52
1514711272.61,59108,6.5,72740.0,-4.47,-5.39,-5.31,0,*5A
1514711273.83,59109,6.5,72744.3,-4.47,-5.39,-5.39,0,*53
1514711275.04,59110,6.5,72746.3,-4.47,-5.51,-5.43,0,*58
1514711276.26,59111,6.5,72744.8,-4.49,-5.61,-5.47,0,*50
1514711277.48,59112,6.5,72750.3,-4.47,-5.55,-5.43,0,*5E
1514711278.69,59113,6.5,72746.8,-4.47,-5.51,-5.39,0,*56
1514711279.94,59114,6.5,72746.8,-4.49,-5.61,-5.61,0,*51
1514711281.13,59115,6.5,72750.0,-4.49,-5.47,-5.35,0,*55
1514711282.37,59116,6.5,72742.0,-4.47,-5.39,-5.31,0,*55
1514711283.58,59117,6.5,72738.8,-4.47,-5.43,-5.39,0,*51
1514711284.83,59118,6.5,72732.3,-4.47,-5.39,-5.31,0,*5B
1514711286.1,59119,6.5,72732.0,-4.47,-5.31,-5.31,0,*52
1514711287.37,59120,6.5,72734.3,-4.47,-5.31,-5.31,0,*58
1514711288.59,59121,6.5,72736.5,-4.47,-5.55,-5.43,0,*5E
1514711289.81,59122,6.5,72738.5,-4.47,-5.55,-5.43,0,*5D
1514711291.06,59123,6.5,72740.0,-4.45,-5.31,-5.23,0,*5A
1514711292.31,59124,6.5,72744.0,-4.45,-5.27,-5.15,0,*5F
1514711293.58,59125,6.5,72746.5,-4.43,-5.07,-5.07,0,*59
1514711294.84,59126,6.5,72748.0,-4.45,-5.15,-5.03,0,*5B
1514711296.07,59127,6.5,72746.8,-4.43,-5.11,-4.99,0,*5A
1514711297.35,59128,6.5,72748.0,-4.43,-5.19,-5.07,0,*5B
1514711298.62,59129,6.5,72744.5,-4.43,-5.23,-5.23,0,*55
1514711299.84,59130,6.5,72746.3,-4.43,-5.51,-5.39,0,*53
1514711301.08,59131,6.5,72752.3,-4.43,-5.61,-5.39,0,*51
1514711302.3,59132,6.5,72748.8,-4.43,-5.51,-5.39,0,*51
1514711303.52,59133,6.5,72744.8,-4.43,-5.47,-5.39,0,*57
1514711304.74,59134,6.5,72750.0,-4.43,-5.39,-5.35,0,*55
1514711305.93,59135,6.5,72744.5,-4.41,-5.43,-5.35,0,*5B
1514711307.15,59136,6.5,72744.0,-4.45,-5.65,-5.51,0,*5A
1514711308.39,59137,6.5,72746.0,-4.43,-5.61,-5.39,0,*57
1514711309.63,59138,6.5,72746.8,-4.43,-5.61,-5.47,0,*51
1514711310.87,59139,6.5,72748.8,-4.43,-5.65,-5.47,0,*54
1514711312.09,59140,6.5,72748.3,-4.45,-5.61,-5.47,0,*58
1514711313.36,59141,6.5,72746.3,-4.43,-5.73,-5.61,0,*58
1514711314.58,59142,6.5,72746.8,-4.45,-5.69,-5.51,0,*55
1514711315.85,59143,6.5,72742.8,-4.43,-5.61,-5.61,0,*59
1514711317.12,59144,6.56,72748.0,-4.43,-5.77,-5.65,0,*5D
1514711318.36,59145,6.5,72750.8,-4.43,-5.65,-5.51,0,*58
1514711319.61,59146,6.5,72752.5,-4.43,-5.65,-5.51,0,*5B
1514711320.88,59147,6.5,72760.5,-4.43,-5.77,-5.65,0,*5E
1514711322.15,59148,6.5,72758.5,-4.43,-5.85,-5.73,0,*5B
1514711323.42,59149,6.5,72760.8,-4.43,-5.85,-5.73,0,*5A
1514711324.64,59150,6.5,72754.3,-4.43,-5.51,-5.39,0,*55
1514711325.88,59151,6.5,72754.3,-4.43,-5.61,-5.51,0,*59
1514711327.09,59152,6.5,72752.5,-4.43,-6.01,-5.97,0,*55
1514711328.34,59153,6.5,72740.5,-4.45,-5.89,-5.77,0,*5F